• In Moldova, Republic
  • List of Countries
  • For 7 days
  • Water Temperature
  • Satellite Maps
  • Weather Map
  • Weather Widgets
  • user-avatar
    Login

    Hourly Weather Batina

    Today, 25 March, Saturday

    Time Temperature Precipitation Wind Pressure Humidity
    00:00 +7°C° 0 mm 2 mps 668 mmHg 74%
    01:00 +6°C° 0 mm 2 mps 668 mmHg 77%
    02:00 +7°C° 0 mm 1 mps 668 mmHg 80%
    03:00 +6°C° 0 mm 1 mps 668 mmHg 83%
    04:00 +6°C° 0 mm 1 mps 669 mmHg 84%
    05:00 +5°C° 0 mm 2 mps 669 mmHg 85%
    06:00 +5°C° 0 mm 2 mps 669 mmHg 86%
    07:00 +7°C° 0 mm 2 mps 670 mmHg 76%
    08:00 +10°C° 0 mm 1 mps 671 mmHg 66%
    09:00 +12°C° 0 mm 1 mps 672 mmHg 57%
    10:00 +14°C° 0 mm 2 mps 673 mmHg 47%
    11:00 +16°C° 0 mm 2 mps 673 mmHg 37%
    12:00 +18°C° 0 mm 2 mps 673 mmHg 26%
    13:00 +18°C° 0 mm 3 mps 673 mmHg 24%
    14:00 +18°C° 0 mm 3 mps 673 mmHg 22%
    15:00 +18°C° 0 mm 3 mps 673 mmHg 20%
    16:00 +16°C° 0 mm 3 mps 672 mmHg 29%
    17:00 +13°C° 0 mm 3 mps 671 mmHg 38%
    18:00 +10°C° 0 mm 2 mps 671 mmHg 47%
    19:00 +10°C° 0 mm 2 mps 671 mmHg 55%
    20:00 +9°C° 0 mm 2 mps 671 mmHg 63%
    21:00 +9°C° 0 mm 2 mps 672 mmHg 70%
    22:00 +9°C° 0 mm 2 mps 672 mmHg 74%
    23:00 +8°C° 0 mm 2 mps 672 mmHg 78%

    Tomorrow, 26 March, Sunday

    Time Temperature Precipitation Wind Pressure Humidity
    00:00 +8°C° 0 mm 2 mps 672 mmHg 82%
    01:00 +8°C° 0 mm 2 mps 672 mmHg 80%
    02:00 +8°C° 0 mm 2 mps 671 mmHg 77%
    03:00 +9°C° 0 mm 1 mps 671 mmHg 75%
    04:00 +9°C° 0 mm 1 mps 671 mmHg 73%
    05:00 +9°C° 0 mm 1 mps 671 mmHg 72%
    06:00 +9°C° 0 mm 1 mps 671 mmHg 70%
    07:00 +11°C° 0 mm 1 mps 671 mmHg 57%
    08:00 +14°C° 0 mm 1 mps 672 mmHg 43%
    09:00 +16°C° 0 mm 1 mps 673 mmHg 29%
    10:00 +19°C° 0 mm 1 mps 673 mmHg 25%
    11:00 +20°C° 0 mm 1 mps 673 mmHg 21%
    12:00 +22°C° 0 mm 1 mps 673 mmHg 17%
    13:00 +21°C° 0 mm 2 mps 672 mmHg 17%
    14:00 +21°C° 0 mm 2 mps 672 mmHg 17%
    15:00 +21°C° 0 mm 2 mps 672 mmHg 17%
    16:00 +19°C° 0 mm 2 mps 671 mmHg 23%
    17:00 +16°C° 0 mm 2 mps 670 mmHg 29%
    18:00 +14°C° 0 mm 2 mps 670 mmHg 35%
    19:00 +13°C° 0 mm 2 mps 670 mmHg 42%
    20:00 +12°C° 0 mm 1 mps 670 mmHg 48%
    21:00 +10°C° 0 mm 1 mps 670 mmHg 55%
    22:00 +10°C° 0 mm 1 mps 670 mmHg 57%
    23:00 +10°C° 0 mm 1 mps 670 mmHg 59%

    Day after tomorrow, 27 March, Monday

    Time Temperature Precipitation Wind Pressure Humidity
    00:00 +9°C° 0 mm 1 mps 670 mmHg 61%
    01:00 +9°C° 0 mm 1 mps 670 mmHg 62%
    02:00 +9°C° 0 mm 1 mps 669 mmHg 63%
    03:00 +8°C° 0 mm 1 mps 669 mmHg 64%
    04:00 +9°C° 0 mm 1 mps 669 mmHg 62%
    05:00 +9°C° 0 mm 1 mps 669 mmHg 61%
    06:00 +9°C° 0 mm 1 mps 669 mmHg 60%
    07:00 +12°C° 0 mm 1 mps 671 mmHg 50%
    08:00 +15°C° 0 mm 2 mps 672 mmHg 40%
    09:00 +18°C° 0 mm 2 mps 673 mmHg 30%
    10:00 +19°C° 0 mm 3 mps 673 mmHg 28%
    11:00 +20°C° 0 mm 3 mps 673 mmHg 27%
    12:00 +21°C° 0 mm 4 mps 674 mmHg 25%
    13:00 +21°C° 0 mm 4 mps 673 mmHg 26%
    14:00 +21°C° 0 mm 4 mps 673 mmHg 27%
    15:00 +21°C° 0 mm 4 mps 673 mmHg 28%
    16:00 +19°C° 0.1 mm 3 mps 673 mmHg 38%
    17:00 +16°C° 0.1 mm 3 mps 672 mmHg 47%
    18:00 +14°C° 0.1 mm 2 mps 672 mmHg 56%
    19:00 +13°C° 0 mm 2 mps 672 mmHg 64%
    20:00 +12°C° 0 mm 2 mps 673 mmHg 71%
    21:00 +10°C° 0 mm 3 mps 673 mmHg 78%
    22:00 +9°C° 0 mm 2 mps 673 mmHg 81%
    23:00 +9°C° 0 mm 2 mps 673 mmHg 84%

    28 March, Tuesday

    Time Temperature Precipitation Wind Pressure Humidity
    00:00 +8°C° 0 mm 2 mps 673 mmHg 87%
    01:00 +8°C° 0 mm 2 mps 673 mmHg 86%
    02:00 +7°C° 0 mm 2 mps 673 mmHg 86%
    03:00 +7°C° 0 mm 2 mps 672 mmHg 86%
    04:00 +8°C° 0 mm 1 mps 673 mmHg 85%
    05:00 +8°C° 0 mm 1 mps 673 mmHg 83%
    06:00 +8°C° 0 mm 1 mps 673 mmHg 82%
    07:00 +11°C° 0 mm 1 mps 674 mmHg 69%
    08:00 +13°C° 0 mm 1 mps 675 mmHg 56%
    09:00 +15°C° 0 mm 1 mps 676 mmHg 44%
    10:00 +17°C° 0.2 mm 2 mps 676 mmHg 41%
    11:00 +18°C° 0.2 mm 2 mps 676 mmHg 38%
    12:00 +19°C° 0.2 mm 2 mps 676 mmHg 35%
    13:00 +19°C° 0.7 mm 3 mps 676 mmHg 38%
    14:00 +18°C° 0.7 mm 3 mps 675 mmHg 40%
    15:00 +18°C° 0.7 mm 3 mps 675 mmHg 42%
    16:00 +16°C° 0.9 mm 3 mps 675 mmHg 51%
    17:00 +14°C° 0.9 mm 2 mps 675 mmHg 60%
    18:00 +13°C° 0.9 mm 2 mps 675 mmHg 68%
    19:00 +12°C° 0.4 mm 2 mps 675 mmHg 72%
    20:00 +10°C° 0.4 mm 2 mps 675 mmHg 77%
    21:00 +10°C° 0.4 mm 2 mps 676 mmHg 81%
    22:00 +9°C° 0.1 mm 2 mps 675 mmHg 82%
    23:00 +10°C° 0.1 mm 1 mps 675 mmHg 84%

    29 March, Wednesday

    Time Temperature Precipitation Wind Pressure Humidity
    00:00 +9°C° 0.1 mm 1 mps 675 mmHg 85%
    01:00 +9°C° 0 mm 1 mps 675 mmHg 86%
    02:00 +8°C° 0 mm 1 mps 674 mmHg 87%
    03:00 +7°C° 0 mm 0 mps 674 mmHg 88%
    04:00 +7°C° 0 mm 0 mps 675 mmHg 88%
    05:00 +8°C° 0 mm 0 mps 675 mmHg 87%
    06:00 +8°C° 0 mm 0 mps 675 mmHg 86%
    07:00 +11°C° 0.1 mm 1 mps 676 mmHg 77%
    08:00 +12°C° 0.1 mm 1 mps 676 mmHg 69%
    09:00 +14°C° 0.1 mm 2 mps 677 mmHg 60%
    10:00 +15°C° 0.1 mm 2 mps 677 mmHg 54%
    11:00 +16°C° 0.1 mm 2 mps 677 mmHg 48%
    12:00 +17°C° 0.1 mm 3 mps 677 mmHg 42%
    13:00 +17°C° 0.2 mm 3 mps 676 mmHg 41%
    14:00 +17°C° 0.2 mm 3 mps 676 mmHg 40%
    15:00 +17°C° 0.2 mm 3 mps 676 mmHg 38%
    16:00 +16°C° 0.2 mm 3 mps 676 mmHg 46%
    17:00 +13°C° 0.2 mm 3 mps 675 mmHg 53%
    18:00 +13°C° 0.2 mm 2 mps 675 mmHg 60%
    19:00 +12°C° 0.1 mm 2 mps 675 mmHg 65%
    20:00 +10°C° 0.1 mm 2 mps 676 mmHg 71%
    21:00 +10°C° 0.1 mm 1 mps 676 mmHg 76%
    22:00 +10°C° 0 mm 1 mps 675 mmHg 78%
    23:00 +9°C° 0 mm 1 mps 675 mmHg 81%

    30 March, Thursday

    Time Temperature Precipitation Wind Pressure Humidity
    00:00 +8°C° 0 mm 1 mps 675 mmHg 83%
    01:00 +8°C° 0 mm 1 mps 674 mmHg 83%
    02:00 +8°C° 0 mm 1 mps 674 mmHg 83%
    03:00 +7°C° 0 mm 1 mps 674 mmHg 83%
    04:00 +7°C° 0 mm 1 mps 674 mmHg 82%
    05:00 +8°C° 0 mm 1 mps 674 mmHg 82%
    06:00 +8°C° 0 mm 1 mps 674 mmHg 82%
    07:00 +9°C° 0 mm 2 mps 675 mmHg 72%
    08:00 +11°C° 0 mm 3 mps 676 mmHg 63%
    09:00 +13°C° 0 mm 3 mps 677 mmHg 54%
    10:00 +14°C° 0 mm 4 mps 677 mmHg 49%
    11:00 +15°C° 0 mm 4 mps 677 mmHg 44%
    12:00 +16°C° 0 mm 5 mps 677 mmHg 39%
    13:00 +16°C° 0 mm 5 mps 676 mmHg 39%
    14:00 +17°C° 0 mm 4 mps 676 mmHg 39%
    15:00 +17°C° 0 mm 4 mps 676 mmHg 38%
    16:00 +16°C° 0 mm 3 mps 675 mmHg 44%
    17:00 +14°C° 0 mm 3 mps 675 mmHg 50%
    18:00 +13°C° 0 mm 2 mps 675 mmHg 55%
    19:00 +12°C° 0 mm 2 mps 675 mmHg 62%
    20:00 +10°C° 0 mm 2 mps 675 mmHg 68%
    21:00 +9°C° 0 mm 2 mps 675 mmHg 75%
    22:00 +8°C° 0 mm 2 mps 675 mmHg 77%
    23:00 +9°C° 0 mm 1 mps 675 mmHg 79%
    Show more